This is the latest recevied weather packets stored in our database for station/object KI4HRG. If no packets are shown the sender has not sent any weather packets the latest 10 day(s).
| Time | Temp. | Humidity | Pressure | Rain* | Wind** | Luminosity | Snow |
|---|---|---|---|---|---|---|---|
| 1787529182 | 30.56° C | 66% | 1014.4 hPa | 0 mm | - | 12 W/m² | - |
| 1787528878 | 30.56° C | 65% | 1014.4 hPa | 0 mm | - | 15 W/m² | - |
| 1787528574 | 30.56° C | 65% | 1014.4 hPa | 0 mm | - | 16 W/m² | - |
| 1787528274 | 31.11° C | 65% | 1014.4 hPa | 0 mm | - | 19 W/m² | - |
| 1787527971 | 31.11° C | 64% | 1014.4 hPa | 0 mm | - | 21 W/m² | - |
| 1787527667 | 31.11° C | 63% | 1014.3 hPa | 0 mm | - | 23 W/m² | - |
| 1787527362 | 31.67° C | 63% | 1014.4 hPa | 0 mm | - | 39 W/m² | - |
| 1787527058 | 31.67° C | 64% | 1014.1 hPa | 0 mm | - | 41 W/m² | - |
| 1787526753 | 31.67° C | 63% | 1014.4 hPa | 0 mm | - | 39 W/m² | - |
| 1787526450 | 31.67° C | 62% | 1014.6 hPa | 0 mm | - | 43 W/m² | - |
| 1787526146 | 31.67° C | 63% | 1014.6 hPa | 0 mm | - | 49 W/m² | - |
| 1787525842 | 31.67° C | 62% | 1014.2 hPa | 0 mm | - | 53 W/m² | - |
| 1787525537 | 32.22° C | 60% | 1014.4 hPa | 0 mm | - | 54 W/m² | - |
| 1787525231 | 32.22° C | 60% | 1014.3 hPa | 0 mm | - | 57 W/m² | - |
| 1787524929 | 32.22° C | 59% | 1014.1 hPa | 0 mm | - | 58 W/m² | - |
| 1787524623 | 32.22° C | 59% | 1014.2 hPa | 0 mm | - | 61 W/m² | - |
| 1787524318 | 32.22° C | 60% | 1014.1 hPa | 0 mm | - | 60 W/m² | - |
| 1787523710 | 32.22° C | 59% | 1014.3 hPa | 0 mm | - | 62 W/m² | - |
| 1787523408 | 32.22° C | 59% | 1014.2 hPa | 0 mm | - | 65 W/m² | - |
| 1787523104 | 32.22° C | 59% | 1014.2 hPa | 0 mm | - | 65 W/m² | - |
| 1787522800 | 32.78° C | 58% | 1014.3 hPa | 0 mm | - | 53 W/m² | - |
| 1787522495 | 32.22° C | 57% | 1014.2 hPa | 0 mm | - | 70 W/m² | - |
| 1787522185 | 32.22° C | 58% | 1014 hPa | 0 mm | - | 84 W/m² | - |
| 1787521884 | 32.78° C | 57% | 1014.2 hPa | 0 mm | - | 92 W/m² | - |
| 1787521583 | 32.78° C | 56% | 1014 hPa | 0 mm | - | 275 W/m² | - |
* Rain latest hour (hover to see other rain measurements)
** Current wind speed in m/s (hover to see current wind gust speed)